www.pogodaiklimat.ru

Погода и климат >> Архив погоды >> Норвегия >> Ona II


ПОГОДА в Ona II

  • Прогноз погоды в Ona II
  • Монитор погоды в Ona II
  • Климат города

АРХИВ ПОГОДЫ в Ona II

Время (UTC), дата Ветер
(напр.,м/с)
 
Видим.   Явления Облачность Т
(С)
Тd
(С)
f
(%)
Тe
(С)
Тes
(С)
Комфортность P
(гПа)
Po
(гПа)
Тmin
(С)
Tmax
(С)
R
(мм)
R24
(мм)
S
(см)
22 13.11 ЮЗ 9
{12}
н/о н/о +9.9 +4.9 71 +6 +6 1010.2 1008.4
23 13.11 ЮЗ 10
{12}
н/о н/о +9.6 +5.2 74 +5 +5 1010.7 1008.9
00 14.11 ЮЗ 9
{12}
н/о н/о +9.7 +5.3 74 +5 +5 1011.3 1009.5
01 14.11 Ю 10
{11}
н/о н/о +9.9 +4.7 70 +6 +6 1011.5 1009.7
02 14.11 Ю 10
{12}
н/о н/о +9.9 +4.7 70 +6 +6 1011.7 1009.9
03 14.11 Ю 7
{11}
н/о н/о +9.8 +5.0 72 +6 +6 1011.9 1010.1
04 14.11 ЮЗ 8
{13}
н/о н/о +9.9 +4.7 70 +6 +6 1011.9 1010.1
05 14.11 Ю 6
{9}
н/о н/о +9.7 +5.7 76 +6 +6 1012.3 1010.5
06 14.11 Ю 8
{13}
н/о н/о +10.1 +4.7 69 +6 +6 1012.3 1010.5 +9.1 +10.1
07 14.11 Ю 6
{9}
н/о н/о +9.6 +5.0 73 +6 +6 1012.4 1010.6
08 14.11 Ю 6
{7}
н/о н/о +9.3 +4.7 73 +6 +6 1012.5 1010.7
09 14.11 ЮВ 5
{6}
н/о н/о +9.1 +4.5 73 +6 +6 1012.3 1010.5
10 14.11 Ю 4
{6}
н/о н/о +9.4 +5.0 74 +7 +7 1011.8 1010.0
11 14.11 ЮВ 5
{6}
н/о н/о +9.8 +4.2 68 +7 +7 1011.5 1009.7
12 14.11 Ю 5
{9}
н/о н/о +10.0 +4.8 70 +7 +7 1011.4 1009.6
13 14.11 Ю 6
{8}
н/о н/о +10.8 +3.4 60 +8 +8 1011.0 1009.2
14 14.11 Ю 6
{8}
н/о н/о +11.1 +4.1 62 +8 +8 1010.8 1009.0
15 14.11 ЮЗ 7
{10}
н/о н/о +11.5 +3.8 59 +9 +9 1010.5 1008.7
16 14.11 ЮЗ 8
{10}
н/о н/о +11.5 +4.5 62 +8 +8 1010.6 1008.8
17 14.11 ЮЗ 8
{10}
н/о н/о +11.6 +4.6 62 +8 +8 1010.5 1008.7
18 14.11 ЮЗ 7
{11}
н/о н/о +11.4 +4.9 64 +8 +8 1010.6 1008.8 +9.1 +11.7
19 14.11 Ю 6
{9}
н/о н/о +11.6 +4.8 63 +9 +9 1010.4 1008.7
20 14.11 Ю 4
{6}
н/о н/о +11.0 +5.1 67 +9 +9 1010.4 1008.6
21 14.11 Ю 3
{5}
н/о н/о +11.1 +4.8 65 +9 +9 1010.3 1008.5
22 14.11 ЮВ 1
{3}
н/о н/о +11.0 +4.5 64 +11 +11 1010.0 1008.2
23 14.11 В 1
{2}
н/о н/о +11.1 +4.6 64 +11 +11 1010.1 1008.3
00 15.11 Ю 3
{9}
н/о н/о +12.0 +4.7 61 +11 +11 1009.9 1008.2
01 15.11 Ю 5
{8}
н/о н/о +11.6 +5.0 64 +9 +9 1010.2 1008.5
02 15.11 ЮЗ 6
{9}
н/о н/о +12.0 +7.7 75 +9 +9 1009.9 1008.2
03 15.11 ЮЗ 7
{9}
н/о н/о +12.4 +7.5 72 +10 +10 1010.0 1008.3
04 15.11 ЮЗ 6
{11}
н/о н/о +12.0 +8.1 77 +9 +9 1010.2 1008.5
05 15.11 ЮЗ 8
{11}
н/о н/о +13.4 +8.1 70 +11 +11 1010.4 1008.7
06 15.11 ЮЗ 8
{11}
н/о н/о +11.9 +8.4 79 +9 +9 1011.3 1009.6 +10.7 +13.5
07 15.11 ЮЗ 8
{10}
н/о н/о +11.3 +8.7 84 +8 +8 1012.0 1010.2
08 15.11 ЮЗ 9
{12}
н/о н/о +13.2 +8.1 71 +10 +10 1012.7 1011.0
09 15.11 З 9
{11}
н/о н/о +11.7 +8.4 80 +8 +8 1013.5 1011.7
10 15.11 З 11
{13}
н/о н/о +11.6 +8.6 82 +8 +8 1013.8 1012.0
11 15.11 З 9
{14}
н/о н/о +11.4 +9.0 85 +8 +8 1014.4 1012.6
12 15.11 ЮЗ 9
{14}
н/о н/о +11.1 +9.0 87 +7 +7 1014.0 1012.2
13 15.11 З 10
{11}
н/о н/о +12.0 +8.7 80 +8 +8 1014.5 1012.7
14 15.11 З 9
{10}
н/о н/о +11.6 +8.8 83 +8 +8 1015.1 1013.3
15 15.11 ЮЗ 11
{12}
н/о н/о +12.5 +8.6 77 +9 +9 1015.2 1013.4
16 15.11 ЮЗ 6
{12}
н/о н/о +12.7 +8.2 74 +10 +10 1016.0 1014.2
17 15.11 Ю 4
{9}
н/о н/о +12.3 +8.8 79 +10 +10 1016.0 1014.2
18 15.11 Ю 7
{12}
н/о н/о +14.1 +7.6 65 +12 +12 1015.6 1013.9 +11.0 +14.1
19 15.11 Ю 5
{8}
н/о н/о +13.9 +7.4 65 +12 +12 1015.4 1013.7
20 15.11 С 4
{5}
н/о н/о +10.8 +8.0 83 +8 +8 1015.7 1013.9
21 15.11 З 7
{8}
н/о н/о +11.4 +7.3 76 +8 +8 1015.5 1013.7
22 15.11 ЮЗ 5
{8}
н/о н/о +13.7 +4.8 55 +12 +12 1015.7 1014.0
23 15.11 ЮВ 3
{6}
н/о н/о +9.8 +7.6 86 +8 +8 1015.9 1014.1
00 16.11 Ю 5
{8}
н/о н/о +11.9 +6.6 70 +10 +10 1016.1 1014.3
01 16.11 Ю 6
{12}
н/о н/о +12.8 +3.8 54 +11 +11 1016.0 1014.2
02 16.11 Ю 13
{17}
н/о н/о +14.4 +3.6 48 +12 +12 1015.4 1013.7
03 16.11 ЮЗ 11
{17}
н/о н/о +14.6 +4.3 50 +12 +12 1015.9 1014.2
04 16.11 ЮЗ 13
{15}
н/о н/о +12.4 +6.9 69 +9 +9 1016.7 1014.9
05 16.11 ЮЗ 16
{19}
н/о н/о +11.3 +8.5 83 +6 +6 1016.8 1015.0
06 16.11 ЮЗ 14
{19}
н/о н/о +11.2 +8.3 82 +7 +7 1018.2 1016.4 +9.5 +15.3
07 16.11 ЮЗ 15
{19}
н/о н/о +11.3 +8.2 81 +7 +7 1019.0 1017.2
08 16.11 ЮЗ 16
{19}
н/о н/о +11.1 +8.3 83 +6 +6 1020.3 1018.5
09 16.11 З 14
{19}
н/о н/о +10.6 +8.7 88 +6 +6 1022.1 1020.3
10 16.11 ЮЗ 14
{17}
н/о н/о +10.5 +8.6 88 +5 +5 1023.2 1021.4
11 16.11 ЮЗ 17
{21}
н/о н/о +10.4 +9.2 92 +5 +5 1023.9 1022.1
12 16.11 ЮЗ 17
{21}
н/о н/о +10.4 +9.0 91 +5 +5 1024.3 1022.5
13 16.11 ЮЗ 13
{19}
н/о н/о +10.3 +9.2 93 +5 +5 1025.9 1024.1
14 16.11 ЮЗ 15
{19}
н/о н/о +10.2 +9.1 93 +5 +5 1026.7 1024.9
15 16.11 З 15
{19}
н/о н/о +10.1 +8.9 92 +5 +5 1027.3 1025.5
16 16.11 З 12
{19}
н/о н/о +10.2 +9.0 92 +5 +5 1028.7 1026.9
17 16.11 З 11
{14}
н/о н/о +10.4 +8.8 90 +6 +6 1029.6 1027.8
18 16.11 З 9
{19}
н/о н/о +10.3 +8.9 91 +6 +6 1030.7 1028.9 +9.9 +11.4
19 16.11 ЮЗ 7
{10}
н/о н/о +10.4 +9.0 91 +7 +7 1031.6 1029.8
20 16.11 З 8
{9}
н/о н/о +10.5 +8.8 89 +7 +7 1032.3 1030.5
21 16.11 З 7
{10}
н/о н/о +10.4 +8.8 90 +7 +7 1032.9 1031.1
22 16.11 З 8
{10}
н/о н/о +10.3 +8.9 91 +6 +6 1033.6 1031.8
23 16.11 З 9
{10}
н/о н/о +10.2 +8.8 91 +6 +6 1034.2 1032.4
00 17.11 З 7
{10}
н/о н/о +10.2 +8.6 90 +6 +6 1034.8 1033.0
01 17.11 З 7
{9}
н/о н/о +10.2 +8.8 91 +6 +6 1035.6 1033.8
02 17.11 ЮЗ 6
{8}
н/о н/о +10.2 +8.8 91 +7 +7 1036.2 1034.4
03 17.11 ЮЗ 5
{7}
н/о н/о +10.2 +8.8 91 +7 +7 1036.6 1034.8
04 17.11 ЮЗ 5
{6}
н/о н/о +10.1 +8.7 91 +7 +7 1036.9 1035.1
05 17.11 ЮЗ 5
{7}
н/о н/о +10.1 +8.7 91 +7 +7 1037.4 1035.6
06 17.11 ЮЗ 6
{9}
н/о н/о +10.1 +8.5 90 +7 +7 1037.7 1035.9 +10.0 +10.5
07 17.11 З 3
{6}
н/о н/о +10.1 +8.7 91 +8 +8 1038.6 1036.8
08 17.11 Ю 1
{3}
н/о н/о +9.8 +8.4 91 +9 +9 1039.3 1037.5
09 17.11 штиль 0
{2}
н/о н/о +10.0 +8.6 91 +9 +9 1039.5 1037.7
10 17.11 ЮВ 1
{3}
н/о н/о +9.9 +8.7 92 +9 +9 1039.8 1038.0
11 17.11 ЮВ 2
{2}
н/о н/о +9.8 +8.6 92 +8 +8 1040.0 1038.2
12 17.11 В 1
{6}
н/о н/о +9.9 +8.8 93 +9 +9 1040.1 1038.3
13 17.11 В 2
{3}
н/о н/о +9.9 +8.7 92 +8 +8 1040.1 1038.3
14 17.11 СВ 3
{4}
н/о н/о +9.8 +8.6 92 +7 +7 1040.2 1038.4
15 17.11 СВ 3
{5}
н/о н/о +9.8 +8.6 92 +7 +7 1040.4 1038.6
16 17.11 В 5
{6}
н/о н/о +9.8 +8.6 92 +7 +7 1040.5 1038.7
17 17.11 СВ 5
{6}
н/о н/о +9.9 +8.5 91 +7 +7 1040.6 1038.8
18 17.11 В 3
{6}
н/о н/о +9.6 +8.2 91 +7 +7 1040.7 1038.9 +9.6 +10.1
19 17.11 СВ 3
{4}
н/о н/о +9.5 +8.1 91 +7 +7 1040.9 1039.1
20 17.11 В 2
{4}
н/о н/о +8.9 +7.5 91 +7 +7 1040.9 1039.1
21 17.11 В 2
{3}
н/о н/о +8.7 +7.3 91 +7 +7 1040.7 1038.9
22 17.11 В 2
{3}
н/о н/о +8.5 +7.1 91 +7 +7 1040.8 1039.0
23 17.11 СВ 4
{4}
н/о н/о +8.2 +6.7 90 +5 +5 1040.7 1038.9
00 18.11 СВ 4
{6}
н/о н/о +7.4 +6.4 93 +4 +4 1040.8 1039.0
01 18.11 СВ 4
{5}
н/о н/о +7.0 +6.1 94 +3 +3 1040.8 1039.0
02 18.11 СВ 3
{5}
н/о н/о +6.9 +6.0 94 +4 +4 1040.6 1038.8
03 18.11 СВ 1
{4}
н/о н/о +6.6 +5.9 95 +5 +5 1040.6 1038.8
04 18.11 СЗ 1
{2}
н/о н/о +6.9 +6.2 95 +6 +6 1040.5 1038.7
05 18.11 З 2
{3}
н/о н/о +6.8 +6.1 95 +4 +4 1040.5 1038.7
06 18.11 ЮЗ 2
{5}
н/о н/о +6.7 +6.0 95 +4 +4 1040.2 1038.4 +6.6 +9.6
07 18.11 ЮЗ 3
{5}
н/о н/о +6.5 +5.8 95 +3 +3 1040.2 1038.4
08 18.11 ЮЗ 2
{4}
н/о н/о +6.7 +5.8 94 +4 +4 1040.4 1038.6
09 18.11 штиль 0
{4}
н/о н/о +6.9 +5.9 93 +6 +6 1040.8 1039.0
10 18.11 ЮВ 1
{2}
н/о н/о +6.9 +5.7 92 +6 +6 1041.0 1039.2
11 18.11 Ю 1
{3}
н/о н/о +6.8 +5.4 91 +6 +6 1040.7 1038.9
12 18.11 Ю 3
{5}
н/о н/о +7.1 +5.3 88 +4 +4 1040.5 1038.7
13 18.11 Ю 4
{6}
н/о н/о +7.3 +5.6 89 +4 +4 1040.5 1038.7
14 18.11 Ю 3
{6}
н/о н/о +7.6 +5.3 85 +5 +5 1040.3 1038.5
15 18.11 Ю 4
{5}
н/о н/о +7.5 +5.0 84 +4 +4 1040.5 1038.7
16 18.11 Ю 4
{5}
н/о н/о +7.9 +5.7 86 +5 +5 1040.5 1038.7
17 18.11 ЮВ 4
{5}
н/о н/о +7.1 +5.3 88 +3 +3 1040.5 1038.7
18 18.11 ЮВ 3
{6}
н/о н/о +7.6 +5.8 88 +5 +5 1040.4 1038.6 +6.5 +8.0
19 18.11 Ю 4
{5}
н/о н/о +8.3 +6.1 86 +5 +5 1040.6 1038.8
20 18.11 Ю 3
{5}
н/о н/о +8.2 +6.0 86 +5 +5 1040.3 1038.5
21 18.11 ЮЗ 3
{5}
н/о н/о +8.0 +6.1 88 +5 +5 1039.9 1038.1
22 18.11 Ю 3
{4}
н/о н/о +8.2 +6.0 86 +5 +5 1039.9 1038.1
23 18.11 Ю 3
{4}
н/о н/о +8.3 +5.9 85 +6 +6 1039.6 1037.8
00 19.11 Ю 4
{5}
н/о н/о +7.6 +5.8 88 +4 +4 1039.2 1037.4
01 19.11 Ю 4
{5}
н/о н/о +7.4 +5.4 87 +4 +4 1038.8 1037.0
02 19.11 ЮВ 2
{5}
н/о н/о +7.3 +5.3 87 +5 +5 1038.5 1036.7
03 19.11 Ю 3
{3}
н/о н/о +7.6 +5.4 86 +5 +5 1038.3 1036.5
04 19.11 Ю 2
{4}
н/о н/о +7.8 +5.3 84 +6 +6 1038.0 1036.2
05 19.11 ЮВ 2
{4}
н/о н/о +7.5 +5.0 84 +5 +5 1038.1 1036.3
06 19.11 ЮВ 4
{5}
н/о н/о +7.2 +4.0 80 +4 +4 1038.1 1036.3 +7.1 +8.4
07 19.11 ЮВ 3
{5}
н/о н/о +7.3 +3.9 79 +4 +4 1038.3 1036.5
08 19.11 Ю 3
{4}
н/о н/о +7.4 +4.0 79 +5 +5 1038.4 1036.6
09 19.11 ЮВ 3
{4}
н/о н/о +7.3 +3.9 79 +4 +4 1038.4 1036.6
10 19.11 ЮВ 2
{5}
н/о н/о +7.3 +3.6 77 +5 +5 1038.4 1036.6
11 19.11 ЮВ 3
{4}
н/о н/о +7.1 +3.2 76 +4 +4 1038.0 1036.2
12 19.11 Ю 3
{5}
н/о н/о +7.2 +3.5 77 +4 +4 1037.9 1036.1
13 19.11 Ю 3
{4}
н/о н/о +7.2 +3.8 79 +4 +4 1037.3 1035.5
14 19.11 ЮВ 2
{4}
н/о н/о +7.4 +3.8 78 +5 +5 1037.4 1035.6
15 19.11 ЮВ 3
{4}
н/о н/о +7.4 +3.1 74 +5 +5 1037.2 1035.4
16 19.11 ЮВ 3
{5}
н/о н/о +7.1 +3.4 77 +4 +4 1037.0 1035.2
17 19.11 ЮВ 4
{5}
н/о н/о +6.9 +3.3 78 +3 +3 1036.8 1035.0
18 19.11 ЮВ 3
{5}
н/о н/о +6.8 +3.4 79 +4 +4 1036.6 1034.8 +6.7 +7.5
19 19.11 ЮВ 2
{4}
н/о н/о +6.6 +3.2 79 +4 +4 1036.7 1034.9
20 19.11 ЮВ 3
{5}
н/о н/о +6.6 +2.9 77 +4 +4 1036.7 1034.9
21 19.11 Ю 2
{3}
н/о н/о +6.6 +3.1 78 +4 +4 1036.7 1034.9
22 19.11 В 1
{2}
н/о н/о +6.4 +2.9 78 +5 +5 1036.6 1034.8
23 19.11 В 2
{3}
н/о н/о +6.2 +3.4 82 +4 +4 1036.6 1034.8
00 20.11 ЮВ 3
{5}
н/о н/о +6.2 +2.3 76 +3 +3 1036.2 1034.4
01 20.11 В 3
{4}
н/о н/о +6.1 +2.6 78 +3 +3 1036.2 1034.4
02 20.11 В 3
{5}
н/о н/о +5.8 +2.5 79 +3 +3 1035.7 1033.9
03 20.11 В 3
{4}
н/о н/о +6.0 +2.7 79 +3 +3 1035.5 1033.7
04 20.11 В 4
{5}
н/о н/о +5.8 +2.6 80 +2 +2 1035.0 1033.2
05 20.11 В 4
{6}
н/о н/о +5.7 +2.5 80 +2 +2 1034.6 1032.8
06 20.11 В 6
{8}
н/о н/о +5.6 +2.4 80 +1 +1 1034.4 1032.6 +5.6 +6.8
07 20.11 В 5
{9}
н/о н/о +5.4 +2.2 80 +1 +1 1034.3 1032.5
08 20.11 В 6
{7}
н/о н/о +4.9 +1.9 81 -0 -0 1034.4 1032.6
09 20.11 В 6
{7}
н/о н/о +4.9 +1.8 80 -0 -0 1034.0 1032.2
10 20.11 СВ 11
{14}
н/о н/о +5.9 +1.8 75 -0 -0 1032.8 1031.0
11 20.11 В 7
{14}
н/о н/о +5.2 +1.2 75 -0 -0 1032.5 1030.7
12 20.11 СВ 12
{16}
н/о н/о +5.8 +1.2 72 -1 -1 1031.5 1029.7
13 20.11 СВ 12
{16}
н/о н/о +5.9 +1.6 74 -1 -1 1031.2 1029.4
14 20.11 В 11
{15}
н/о н/о +6.0 +1.7 74 -0 -0 1030.5 1028.7
15 20.11 В 5
{17}
н/о н/о +5.1 +1.1 75 +1 +1 1030.4 1028.6
16 20.11 В 5
{10}
н/о н/о +5.0 +1.0 75 +1 +1 1030.3 1028.5
17 20.11 В 6
{15}
н/о н/о +5.1 +1.2 76 0 0 1029.5 1027.7
18 20.11 В 5
{17}
н/о н/о +5.0 +1.3 77 +1 +1 1029.0 1027.2 +4.7 +6.3
19 20.11 В 6
{8}
н/о н/о +4.9 +1.0 76 -0 -0 1028.9 1027.1
20 20.11 В 5
{7}
н/о н/о +4.8 +0.4 73 0 0 1028.8 1027.0
21 20.11 В 6
{7}
н/о н/о +4.8 -0.2 70 -0 -0 1028.9 1027.1
22 20.11 В 7
{9}
н/о н/о +5.2 -0.2 68 0 0 1028.5 1026.7

 

Местоположение метеостанции Ona II (Норвегия): широта 62.86 долгота 6.54 высота над уровнем моря 13 м.

В архиве по умолчанию представлена погода в Ona II за последнюю неделю. Архивные данные за месяц целиком и за предыдущие месяцы, начиная с января 2011 года, Вы можете получить, выбрав интересующий диапазон дат из раскрывающегося списка и нажав кнопку "Ввод!".


*Определитесь, кто Вы:
робот инопланетянин человек

Внимание! Время в таблицах - всемирное. Для получения местного времени необходимо прибавить поправку, которая в Ona II равна 1 ч.

Смотрите также архив погоды в соседних городах и на ближайших метеорологических станциях:

Погода в Rekdal (Норвегия) (26 км)
Погода в Molde Lufthavn (Норвегия) (39 км)
Погода в Alesund Lufthavn (Норвегия) (39 км)
Погода в Lebergsfjellet (Норвегия) (41 км)
Погода в Alesund IV (Норвегия) (47 км)
Погода в Kristiansund Lufthavn (Норвегия) (70 км)
Погода в Mannen (Норвегия) (77 км)
Погода в Orsta-Volda Lufthavn (Норвегия) (79 км)
Погода в Marstein (Норвегия) (81 км)
Погода в Tafjord (Норвегия) (83 км)

Пояснения к столбцам:

Ветер - указаны скорость ветра в м/с - средняя за 10 мин, порывы в срок и между сроками (в фигурных скобках) и направление, откуда дует ветер: С - северный, СВ - северо-восточный, В - восточный, ЮВ - юго-восточный, Ю - южный, ЮЗ - юго-западный, З - западный, СЗ - северо-западный.
Видимость - горизонтальная дальность видимости в метрах или километрах. При видимости от 1 до 10 км при отсутствии осадков обычно наблюдается дымка, при ухудшении видимости до 1 км и менее - туман. В сухую погоду видимость может ухудшаться дымом, пылью или мглою.
Явления - указаны атмосферные явления, наблюдавшиеся в срок или в последний час перед сроком; фигурными скобками обозначены явления, наблюдавшиеся между сроками (за 1-3 часа до срока); квадратными скобками обозначены град или гололедные отложения с указанием их диаметра в мм.
Облачность - указаны через наклонную черту общая и нижняя облачность в баллах и высота нижней границы облаков в метрах; квадратными скобками обозначены формы облаков: Ci - перистые, Cs - перисто-слоистые, Cc - перисто-кучевые, Ac - высококучевые, As - высокослоистые, Sc - слоисто-кучевые, Ns - слоисто-дождевые, Cu - кучевые, Cb - кучево-дождевые. Подробнее классификацию облаков см. в Атласе облаков (PDF).
T - Температура воздуха - температура, измеренная на высоте 2 м над землей.
Td - Температура точки росы - температура, при понижении до которой содержащийся в воздухе водяной пар достигнет насыщения.
f - Относительная влажность воздуха - влажноcть воздуха, измеренная на высоте 2 м над землей.
Te - Эффективная температура - температура, которую ощущает одетый по сезону человек в тени. Характеристика душности погоды. При расчете учитывается влияние влажности воздуха и скорости ветра на теплоощущения человека.
Tes - Эффективная температура на солнце - температура, которую ощущает человек, с поправкой на солнечный нагрев. Характеристика знойности погоды. Зависит от высоты солнца над горизонтом, облачности и скорости ветра. Ночью, в пасмурную погоду, а также при ветре 12 м/с и более поправка равна нулю.
P - Атмосферное давление - приведенное к уровню моря атмосферное давление.
Po - Атмосферное давление - измеренное на уровне метеостанции атмосферное давление.
Tmin - Минимальная температура - минимум температуры воздуха на высоте 2 м над землей.
Tmax - Максимальная температура - максимум температуры воздуха на высоте 2 м над землей.
R - Количество осадков - Количество выпавших осадков за период времени, мм. При наведении курсора мыши на число - период времени, за который выпало указанное количество осадков.
R24 - Количество осадков - Количество выпавших осадков за 24 часа, мм.
S - Снежный покров - Высота снежного покрова, см. При наведении курсора мыши на число - состояние снежного покрова и степень покрытия местности в баллах.